Find Poquito

NORAD ID: 62691 Int'l Des: NNA 2025-009 Owner: ULUX Country: L operational
LEOCIRCULARRETROGRADESSO

リアルタイム位置

3D地球を読み込み中...

Poquitoについて

説明を読み込み中...

次回通過

Passes for default location (London). Set your location on the main map for personalized predictions.

高度履歴

Loading altitude history...

軌道要素

1 62691U 25009CL 26131.18444981 .00023864 00000-0 53649-3 0 9995
2 62691 97.3767 215.7962 0001246 25.6222 334.5087 15.43332755 73489
Epoch: May 11, 2026 • Age: 8 hours

現在のステータス

高度 439.7 km
速度 7.65 km/s
衛星直下点 22.30°N, 23.46°W
打ち上げ日 Jan 14, 2025
運用期間 1.3 years
タイプ other

技術仕様

分類 Payload
質量 0.25 kg
乾燥質量 0.25 kg
総質量 0.25 kg
長さ 0.05 m
直径 0.05 m
スパン 0.05 m
形状 Box
製造者 ULUX
バスタイプ PocketQube 1P
フェーズステータス In Orbit
所有者/国 ULUX/L

Most Searched